Location: Trzemesnia
(49.4400°N, 19.5900°E)
Time: 20:43:29
(UTC+01:00)

ISS - Visible Passes

Search period start: 18 January 2018 00:00
Search period end: 28 January 2018 00:00
Orbit: 402 x 407 km, 51.6° (Epoch: 18 January)

Date Brightness Start Highest point End Pass type
(mag) Time Alt. Az. Time Alt. Az. Time Alt. Az.
25 Jan -1.4 18:12:53 10° SSE 18:13:31 12° SSE 18:13:31 12° SSE visible
26 Jan -1.5 18:55:07 10° SW 18:56:18 19° SSW 18:56:18 19° SSW visible
27 Jan -2.5 18:03:13 10° SSW 18:05:57 25° SE 18:06:18 24° SE visible
27 Jan -0.3 19:38:54 10° WSW 19:38:58 10° WSW 19:38:58 10° WSW visible
